Showing default

3CAT-5/A (TYVAK-0161), 46292

Orbit data source: Space-Track

3CAT-5/A (TYVAK-0161), 46292 is a payload satellite owned by UPC (ES) in SSO that was launched on Thu, 03 Sep 2020 UTC via a VEGA launch vehicle from the French Guiana (FRGUI). Payload-class satellites include a variety of spacecraft equipped with specific instruments for various scientific and technological missions. These include communications satellites like Starlink; space stations such as the ISS; scientific satellites like the Hubble; Earth observation satellites from companies like Planet Labs, Umbra, and HawkEye 360; GPS; miniature CubeSats for education and research; and military/defense satellites.

Loading next visibility...
Identifier
46292, 2020-061W
Orbit
SSO
Country
Flag of ESES / SPN
Related business
Manufacturer
UPC
Mission
Non-operational Amateur Technology
Bus & Motor
CUBESAT 6U, Unknown motor
Mass
~10 kg wet, ~10 kg dry
Launch date (UTC)
2020-09-03 (6 years ago)
Launch vehicle
VEGA
Launch site
French Guiana (FRGUI)
Object type
Payload
Rocket body
Debris
Shape & HBR
Box, Unknown HBR
Radar Cross Section
0.080 m², Medium (>0.1 m² and < 1m²)

Expand to show TLE details & history
Last TLE update: 1 day ago

TLE from 1 day ago
0 3CAT-5/A (TYVAK-0161)
1 46292U 20061W   26072.16573759  .00017599  00000-0  40063-3 0  9999
2 46292  97.2527 135.3315 0003423 108.5150 251.6470 15.43013066306205
Epoch: 2026-03-13T03:58Z
TLE epoch observation values (Epoch: 2026-03-13T03:58:39.727Z)
Latitude
-0.00006°
Longitude
-95.1392°
Altitude
441.084 km
Speed
7.647 km/s
True Right ascension
09h 01m 19s
True Declination
0° 00' 00"
Sunlit
Object was in full shadow at epoch
Visualization orbit readout
Latitude
Unknown
Longitude
Unknown
Altitude
Unknown
Speed
Unknown
Apparent Right ascension
Unknown
Apparent Declination
Unknown
Sunlit
N/A
Visualization observer readout
Local Sidereal Time
16:02:01
Azimuth
Unknown
Elevation
Unknown
Doppler factor
Unknown
Orbital elements
Apogee altitude
436.483 km
Perigee altitude
431.819 km
Semi-major axis
6,812.288 km
Eccentricity
0.00034
Inclination
97.2527°
RAAN
135.3315°
Arg. of periapsis
108.515°
True anomaly
251.60978°
Mean anomaly
251.647°
Eccentric anomaly
251.62839°
Mean motion
3.86015 °/min
Orbital period
93.26 mins
BSTAR
0.00040063
Loading maneuver chart data...
Computing Atmospheric mass density...

Documentation

Showing up to 5 results
|